Location: Unspecified
(47.8330°N, 0.0000°E)
Time: 12:34:03
(UTC+00:00)

VELOX 1 - Pass Details

Date: 31 August 2019
Orbit: 629 x 643 km, 98.2° (Epoch: 16 September)

Event Time Altitude Azimuth Distance (km) Brightness Sun altitude
Exits shadow 00:31:43 26° 32° (NNE) 1,266 ? -32.9°
Drops below altitude 10° 00:34:13 10° 4° (N) 2,029 ? -32.9°
Sets 00:36:37 0° 355° (N) 2,945 ? -32.8°
